Flag for Germany Weather past 2 weeks in Kaiserslautern, Rhineland-Palatinate, Germany

Now
30 °F

Passing clouds.


Feels Like: 30 °F
Forecast: 32 / 42 °F
Wind: No wind

Location: Ramstein

Current Time: Mar 5, 2015 at 12:46:42 AM

Latest Report: Mar 4, 2015 at 11:58 PM


Visibility: N/A

Pressure: 30.50 "Hg

Humidity: 90%

Dew point: 27 °F

Location of KaiserslauternLocation

Historic Weather in Kaiserslautern — Graph

°F

Kaiserslautern temperature yesterday

Maximum temperature yesterday: 44 °F (at 3:58 PM)
Minimum temperature yesterday: 31 °F (at 9:58 PM)
Average temperature yesterday: 38 °F

Past Weeks' High & Low Weather Summary

 TemperatureHumidityPressure
High54 °F (Feb 20, 3:58 PM)100% (Feb 21, 6:58 PM)30.75 "Hg (Feb 21, 6:58 PM)
Low25 °F (Feb 28, 5:58 AM)36% (Feb 20, 10:58 PM)29.46 "Hg (Feb 21, 6:04 AM)
Average39 °F79%30.01 "Hg
* Reported Feb 17 10:59 PM — Mar 4 10:58 PM, Kaiserslautern, Weather by CustomWeather, © 2015

Note: Actual official high and low records may vary slightly from our data, if they occured in-between our weather recording intervals... More about our weather records

Advertising

Kaiserslautern weather history for previous 24 hours

 ConditionsComfort  
Time TempWeatherWind HumidityBarometerVisibility
10:58 PM
Wed, Mar 4
31 °FPassing clouds.5 mph90%30.50 "HgN/A
9:58 PM31 °FClear.2 mph90%30.47 "HgN/A
8:58 PM33 °FClear.5 mph89%30.45 "HgN/A
7:58 PM36 °FPassing clouds.8 mph83%30.45 "HgN/A
6:59 PM36 °FPassing clouds.8 mph87%30.38 "HgN/A
5:58 PM39 °FSunny.10 mph65%30.39 "HgN/A
4:58 PM44 °FScattered clouds.15 mph55%30.35 "HgN/A
3:58 PM44 °FScattered clouds.12 mph57%30.35 "HgN/A
2:58 PM44 °FScattered clouds.16 mph58%30.34 "HgN/A
1:58 PM43 °FOvercast.13 mph54%30.34 "HgN/A
12:58 PM43 °FPartly sunny.15 mph59%30.34 "HgN/A
11:58 AM41 °FOvercast.13 mph66%30.35 "HgN/A
10:58 AM39 °FOvercast.10 mph69%30.36 "HgN/A
9:58 AM38 °FMostly cloudy.17 mph77%30.33 "HgN/A
8:58 AM39 °FSunny.13 mph75%30.32 "HgN/A
7:58 AM36 °FScattered clouds.7 mph87%30.30 "HgN/A
6:58 AM35 °FClear.5 mph82%30.27 "HgN/A
5:58 AM36 °FClear.7 mph81%30.27 "HgN/A
4:58 AM37 °FPassing clouds.9 mph81%30.24 "HgN/A
3:58 AM37 °FOvercast.8 mph87%30.23 "HgN/A
2:58 AM37 °FOvercast.7 mph87%30.22 "HgN/A
1:58 AM38 °FPassing clouds.8 mph85%30.21 "HgN/A
12:58 AM39 °FPartly cloudy.9 mph87%30.19 "HgN/A
Weather by CustomWeather, © 2015

See weather overviewHow to use our weather pages